Theta_e
300 301 301 303 304 304 304 305 305 305 306 306 305 306 307 309 304 302 309 311 308 310 312 315 316 317 318 316 318 320 323 323 324 336 331 325 326 337 343 348 350 351 350 352 352 350 350 347 348 349 348 349 350 351 352 352 350 350 353 354 355 355 357 358 360 361 362 363 363 363 363 364 363 363 362 363 364 363 365 365 364 364 365 366 367 367 368
299 300 301 302 303 303 303 304 305 306 306 306 306 307 307 307 308 309 310 312 309 311 313 314 315 317 317 317 319 320 320 320 323 323 327 324 322 323 328 347 350 353 352 353 354 353 352 347 348 347 348 351 349 349 350 350 351 350 352 354 356 356 356 358 361 363 363 364 364 364 364 364 364 364 364 364 363 364 364 364 366 365 366 366 366 366 366
299 300 301 301 302 301 301 303 304 304 305 305 306 306 307 309 308 309 308 309 309 314 318 318 319 320 320 321 319 318 321 319 319 320 320 322 323 327 332 342 345 350 354 352 355 355 353 351 348 348 349 350 349 348 348 349 351 351 351 355 355 356 357 359 362 364 364 364 366 365 365 364 366 365 364 364 364 364 364 365 366 367 365 365 365 366 366
297 299 299 300 300 300 300 301 302 303 303 302 304 304 307 306 306 307 307 306 306 313 316 316 317 317 317 316 317 318 318 319 320 320 320 325 326 327 327 336 339 345 347 352 353 353 352 352 350 349 351 350 349 347 348 349 350 351 350 352 354 358 357 362 363 364 365 366 366 366 366 365 366 366 365 365 364 364 364 364 366 366 364 365 366 365 365
296 299 298 298 298 298 297 299 302 304 306 306 307 308 309 308 308 306 304 305 311 314 316 314 315 316 316 316 316 318 320 322 321 322 322 324 324 324 330 342 347 339 336 340 352 349 348 350 349 349 351 349 349 350 351 351 353 351 349 350 355 359 360 362 364 365 367 367 367 367 366 366 367 367 366 365 365 364 363 365 366 366 366 365 365 366 365
296 297 297 298 297 291 294 308 308 307 305 306 304 305 307 309 310 308 311 312 315 316 316 315 316 316 317 319 321 322 322 323 324 323 325 324 325 325 327 337 340 343 345 344 343 346 350 349 347 350 352 349 350 352 351 352 352 353 352 352 356 360 362 363 365 368 368 367 366 367 368 367 367 367 366 365 365 365 365 366 365 365 364 364 364 365 364
293 297 297 294 290 293 306 309 312 311 310 311 309 309 311 312 312 312 311 312 314 315 316 316 318 320 320 321 321 321 323 327 329 327 324 326 330 335 337 340 340 347 351 351 352 350 346 344 348 350 349 349 350 350 351 349 352 358 356 356 357 360 362 362 365 367 367 366 366 367 368 368 367 366 365 366 365 365 364 364 364 363 362 361 361 364 362
296 294 294 287 291 302 304 309 311 315 314 314 312 309 311 312 315 321 317 317 320 321 321 321 322 322 321 322 326 329 328 326 331 328 325 326 327 331 339 349 356 358 353 354 350 350 350 348 345 346 348 348 347 347 349 349 351 355 357 357 355 359 362 361 363 366 366 366 365 365 365 366 365 365 365 366 365 365 364 363 364 364 363 364 362 360 360
290 293 293 293 302 299 302 302 308 312 311 311 308 302 307 322 322 322 323 324 324 324 326 327 328 331 327 322 321 323 324 328 329 330 330 333 346 348 351 349 350 356 358 357 355 357 356 350 347 345 345 347 347 346 348 349 354 354 355 357 357 359 362 362 363 365 366 364 364 364 365 365 364 363 364 365 366 366 364 363 362 363 363 361 362 359 360
296 292 291 293 292 290 297 304 313 316 316 316 318 313 312 321 324 324 325 324 326 327 328 330 333 332 322 316 316 321 322 325 333 342 342 344 346 346 348 352 352 356 358 358 358 358 356 356 351 348 347 348 350 350 349 349 351 354 355 356 359 361 362 362 363 365 366 365 364 364 365 364 364 364 364 365 365 366 364 362 360 362 363 363 363 361 360
293 292 289 290 290 295 305 309 312 314 317 313 320 308 303 321 324 323 324 324 326 327 327 328 330 325 315 313 318 343 344 343 345 343 346 344 345 347 348 349 349 352 356 357 358 358 360 354 353 351 351 351 350 349 350 350 352 354 355 356 358 359 361 362 365 366 365 365 365 365 364 364 364 365 364 365 365 366 364 364 362 363 363 362 361 362 360
292 292 290 289 294 295 304 311 311 315 317 313 314 299 300 319 323 322 324 323 324 326 327 327 327 326 319 315 330 336 338 339 342 342 343 345 344 346 346 348 350 352 357 359 361 356 352 355 354 353 351 350 351 350 350 349 348 352 355 357 359 360 361 362 364 365 365 366 366 366 365 366 367 366 366 365 365 364 364 364 363 362 360 361 361 360 360
291 290 291 294 296 302 305 309 309 316 314 310 301 295 313 318 321 323 325 324 325 326 325 326 323 330 334 334 335 336 337 338 341 342 342 343 343 344 344 346 348 351 354 357 356 355 359 358 357 355 353 350 350 353 354 352 350 352 357 360 361 362 363 362 362 366 367 367 366 367 367 367 366 365 365 365 365 365 363 363 363 362 360 359 359 359 360
290 291 289 290 296 304 304 307 306 309 306 297 298 314 320 325 322 325 324 324 325 325 324 325 326 329 332 333 333 335 336 336 340 340 340 341 342 343 345 347 347 348 352 355 356 355 357 358 354 354 355 353 354 355 355 354 355 355 358 361 362 364 365 362 362 365 366 367 368 367 368 368 367 365 366 367 366 365 363 364 363 361 362 360 358 358 360
293 293 289 288 284 300 308 311 306 312 301 303 318 322 326 324 326 325 326 326 326 324 323 325 327 329 329 331 332 333 335 335 336 338 338 340 340 341 344 346 346 345 351 351 352 354 353 356 357 354 352 354 354 355 356 358 358 358 358 361 365 365 366 362 364 366 368 367 367 367 367 368 367 365 365 365 366 366 366 365 364 362 362 360 358 358 359
289 289 287 288 296 306 310 310 303 315 317 321 322 320 316 324 325 326 327 327 326 325 324 324 326 328 329 331 332 332 332 334 336 337 339 340 342 342 342 343 344 345 348 350 351 354 353 355 359 363 355 355 357 356 357 366 363 362 363 364 366 365 365 364 364 364 366 366 368 368 368 367 366 366 365 366 366 366 366 363 361 359 359 361 359 356 356
294 293 295 302 305 307 310 310 312 317 319 323 324 324 323 323 324 326 327 326 326 326 326 326 327 327 328 328 329 329 330 332 333 334 336 337 339 340 341 341 343 344 346 348 350 351 352 354 356 359 363 362 362 361 362 366 365 361 363 364 364 363 363 362 363 363 364 367 367 367 367 366 366 364 365 366 364 366 366 362 360 359 358 359 359 358 355
301 302 303 305 305 306 307 309 315 314 314 317 321 322 321 325 326 327 326 327 327 326 327 325 327 327 327 329 329 330 331 331 333 335 336 337 338 339 340 342 342 344 345 346 347 347 349 352 352 353 356 357 357 357 359 361 365 365 363 361 362 362 363 364 364 364 364 365 367 367 366 366 366 366 366 363 362 364 362 358 360 359 357 356 356 358 356
294 290 302 303 304 306 308 309 311 314 315 315 318 319 320 323 325 327 327 328 327 327 327 326 326 325 326 327 329 331 332 332 333 335 336 337 337 337 338 340 342 343 344 343 344 345 346 349 350 350 351 352 353 355 357 359 361 364 365 362 360 361 362 363 364 364 363 361 361 364 366 364 364 365 365 364 363 362 361 359 359 358 357 357 356 356 355
293 293 300 302 304 306 307 307 307 308 311 313 317 319 322 322 325 327 329 330 328 328 327 327 327 326 326 326 327 329 330 330 332 333 336 337 337 338 339 340 341 342 341 342 342 344 344 346 347 348 349 349 350 352 354 357 359 361 362 362 361 361 361 361 361 364 363 361 360 359 362 362 361 361 363 364 362 362 361 360 359 357 358 356 354 356 355
296 300 301 302 303 304 305 306 307 309 315 313 314 317 320 322 323 325 327 329 329 329 328 328 327 325 325 326 327 328 328 330 332 334 336 337 338 339 339 340 341 341 341 341 343 344 344 346 347 345 346 347 350 352 352 355 358 358 359 360 364 362 362 362 361 363 363 362 358 359 361 363 362 363 361 360 361 362 364 364 362 359 359 357 358 359 358
292 293 297 304 298 298 304 308 313 311 311 311 314 315 316 319 321 322 324 326 329 328 328 326 326 324 325 327 329 328 329 330 331 333 334 335 336 337 340 341 341 341 342 342 342 343 345 345 345 344 345 345 348 350 352 354 355 356 356 357 357 359 360 359 359 360 359 357 358 357 358 357 360 360 352 334 351 366 362 346 334 329 329 356 359 359 357
292 300 304 306 305 303 304 306 308 309 309 311 312 312 313 315 321 323 323 323 325 326 327 327 327 329 329 329 330 329 329 330 332 335 335 335 336 337 339 340 341 341 341 342 342 343 343 344 344 344 344 345 346 347 349 351 352 353 353 351 352 355 354 355 352 357 356 359 360 360 360 358 358 356 356 363 324 321 328 335 330 321 312 315 319 323 351
300 302 302 303 302 300 303 306 306 307 310 311 312 313 313 315 319 322 323 324 322 324 326 327 328 330 331 331 331 329 331 332 332 333 335 336 337 338 338 338 338 338 340 341 342 342 344 344 344 344 344 345 346 346 347 348 350 350 351 350 350 350 351 350 349 352 354 353 354 356 357 358 357 355 355 356 360 337 318 316 314 309 308 308 308 309 311
300 304 304 305 305 305 307 309 308 309 311 312 312 313 315 318 320 321 321 323 322 322 324 325 327 331 332 331 331 330 331 331 333 334 334 334 334 335 336 336 337 337 338 339 340 341 342 344 343 345 344 346 347 346 346 346 347 348 349 349 348 348 348 348 347 347 348 348 349 349 349 349 348 349 348 347 348 351 360 324 311 310 310 307 304 304 305
303 303 304 305 306 306 308 309 308 309 310 311 312 314 317 320 321 321 322 325 323 323 323 323 325 328 331 331 331 331 331 331 331 332 333 333 334 334 335 335 336 338 338 339 340 341 342 343 343 344 345 347 348 348 348 347 347 346 348 348 348 347 346 345 344 344 344 345 344 344 343 344 344 344 344 345 344 344 343 345 347 336 312 304 303 305 304
303 303 302 301 301 303 306 305 304 309 310 312 314 317 317 320 323 324 324 324 323 323 323 325 327 329 330 331 330 330 330 330 331 331 332 333 332 333 334 336 336 336 337 338 338 339 340 341 342 342 342 344 347 349 350 349 348 347 348 349 348 343 341 343 345 344 344 343 342 341 340 341 340 340 341 339 340 339 340 339 339 339 341 348 324 307 329
303 304 303 299 300 302 306 310 311 311 310 310 312 316 319 321 322 323 320 322 322 323 323 325 327 328 328 330 331 330 331 331 329 330 331 331 333 334 335 336 337 337 337 337 338 339 339 340 340 340 341 344 346 347 347 348 348 347 347 349 348 347 345 345 345 344 343 344 342 341 340 340 342 339 338 339 338 338 336 340 338 339 339 341 342 327 316
305 305 307 307 307 308 308 309 308 308 311 316 317 319 321 321 321 319 318 319 320 321 323 325 327 327 326 327 328 328 329 329 329 329 329 331 332 333 334 335 335 335 335 335 336 337 337 338 338 338 339 343 345 347 345 346 347 346 345 344 344 345 344 345 345 345 344 343 342 340 335 337 339 341 340 338 338 338 338 339 340 338 338 341 341 339 329
307 307 307 307 308 309 308 308 308 308 309 316 319 320 322 321 318 317 318 317 318 318 321 325 327 326 326 325 326 326 326 327 329 330 330 330 331 333 333 334 334 333 333 333 335 336 336 336 337 337 338 341 343 345 345 346 345 347 347 345 341 338 339 342 344 344 343 342 340 335 341 341 341 341 339 340 339 337 337 340 336 336 336 336 329 334 334
308 309 309 309 308 309 308 309 309 310 314 318 319 319 321 319 317 317 318 318 318 318 321 323 324 324 325 325 326 327 327 327 329 330 330 331 331 332 332 332 329 328 329 331 333 334 335 335 335 335 338 340 341 343 343 342 343 343 344 344 345 329 326 328 333 341 340 339 339 341 341 340 339 338 335 334 335 334 337 339 338 337 335 336 335 333 334
308 307 307 306 306 307 309 311 312 313 315 317 317 319 319 317 315 316 318 317 318 320 322 323 323 322 323 326 327 328 327 328 328 328 328 329 330 332 332 332 332 332 331 332 332 333 334 334 333 335 338 339 339 340 341 341 342 341 340 340 342 344 336 331 337 337 338 339 338 338 338 339 338 338 336 334 334 334 335 336 337 336 335 333 334 334 331
306 305 305 306 307 308 310 312 312 313 315 314 316 318 320 319 317 317 318 319 318 321 321 322 323 323 325 325 325 327 327 328 327 326 326 327 329 330 331 331 331 331 331 331 332 333 333 333 333 335 336 337 338 339 339 340 340 339 340 341 341 341 340 334 333 339 341 338 337 338 337 337 338 338 336 336 338 334 334 334 335 334 333 332 332 333 327
310 310 310 312 312 310 311 311 313 314 316 317 318 319 319 319 318 319 319 320 320 320 322 323 324 325 325 323 322 322 322 322 321 323 325 326 327 329 330 329 330 330 331 332 332 331 332 333 333 334 335 335 336 337 337 338 338 338 339 339 339 338 339 339 341 339 337 338 338 338 339 338 338 337 337 336 335 335 333 332 332 330 330 330 332 332 321
318 316 316 316 316 318 318 315 314 316 317 318 319 320 320 320 318 319 321 321 320 321 323 324 322 321 322 321 320 319 319 319 320 322 325 327 327 328 329 328 327 328 329 330 329 329 330 331 332 333 334 334 335 336 335 336 336 336 337 338 337 337 338 338 338 337 337 337 338 337 337 337 336 336 335 335 337 336 334 334 332 330 330 330 330 332 331
316 317 317 318 317 316 317 317 318 317 317 317 317 320 320 321 321 322 322 321 322 322 323 323 322 322 321 320 319 319 319 320 322 323 323 324 325 326 326 325 324 325 326 327 328 328 328 328 332 333 332 331 331 333 333 335 335 335 336 336 335 335 335 334 335 336 336 336 336 336 336 334 334 334 337 336 335 335 335 334 332 333 330 330 331 331 332
316 315 317 318 319 319 319 318 318 317 316 318 319 322 323 324 324 325 324 323 323 323 322 321 321 320 319 320 320 319 319 320 321 320 320 322 322 321 321 321 321 321 322 321 323 326 327 328 329 332 330 330 331 331 331 333 334 334 335 334 333 333 332 332 332 333 333 334 333 335 334 334 336 336 334 335 334 333 333 333 332 333 334 330 330 330 331
311 312 313 313 313 314 315 316 317 316 316 315 316 317 318 319 320 319 318 319 321 321 322 320 320 320 320 320 319 317 317 318 319 319 319 319 319 319 319 319 319 320 320 320 325 326 326 327 328 330 329 330 330 331 330 330 335 332 333 332 331 331 330 330 329 329 329 331 331 334 333 333 334 335 335 334 333 333 332 332 332 332 332 332 331 331 331
308 310 311 311 312 310 311 312 315 315 315 313 313 315 315 316 317 319 319 319 320 320 319 319 319 319 317 316 315 316 316 317 318 318 318 318 319 318 317 319 319 321 322 325 323 325 325 326 327 327 327 327 329 327 328 329 332 332 332 331 331 330 328 329 328 327 328 330 329 329 330 329 330 330 331 332 330 330 330 329 329 330 331 332 331 330 330
306 307 307 308 308 308 309 309 310 311 312 313 311 310 312 312 312 312 313 313 315 317 316 316 315 315 315 315 315 315 316 317 317 317 317 318 318 317 317 318 320 321 322 323 322 322 324 326 326 324 324 324 324 325 326 326 328 328 329 329 328 328 328 327 327 327 327 328 327 326 327 327 327 327 327 327 328 328 329 329 330 329 329 329 330 331 330
305 306 306 306 307 308 308 307 306 307 309 309 309 310 310 310 309 309 309 310 313 315 315 316 316 315 314 314 314 314 315 315 315 316 318 317 315 313 312 312 317 319 319 320 321 321 321 323 322 322 323 323 322 324 324 324 324 325 325 325 325 325 326 326 326 326 326 326 325 326 326 327 325 325 324 325 325 326 326 326 326 325 326 326 326 327 328
306 306 305 305 305 306 306 307 307 306 306 307 309 309 309 310 309 309 310 311 311 311 311 313 315 315 315 314 313 313 313 312 312 313 315 315 314 313 311 313 317 317 319 319 319 319 319 319 320 321 320 321 321 323 323 322 321 321 321 321 321 321 322 322 323 324 326 326 326 326 326 326 325 324 323 324 324 323 324 324 324 324 325 325 325 326 327
307 306 306 305 305 305 305 306 305 305 306 306 307 308 309 309 309 309 309 310 310 309 308 309 311 312 312 312 312 311 311 311 310 310 311 312 314 315 314 314 317 317 318 317 316 315 316 317 317 317 319 319 319 322 321 320 319 319 319 318 319 319 318 318 319 320 321 322 322 324 324 324 323 321 319 318 319 320 321 322 322 321 321 323 323 323 325
308 307 307 306 306 307 306 306 306 306 304 304 306 307 308 309 309 308 308 308 308 309 309 309 309 308 308 309 308 308 308 309 308 308 307 308 309 312 314 314 314 316 316 314 313 313 314 314 315 315 317 318 318 319 318 317 317 317 317 317 317 317 316 316 316 316 316 316 317 318 318 318 318 318 317 315 314 314 313 314 317 319 321 322 322 321 321
307 307 308 307 307 307 306 305 305 304 305 305 305 306 306 307 308 308 308 307 307 307 308 308 308 307 306 305 306 306 308 308 309 308 306 305 305 306 312 314 312 313 313 314 312 312 313 313 314 315 316 316 316 317 315 315 315 315 316 315 316 316 315 315 314 315 314 315 315 315 315 315 315 315 315 313 311 310 309 310 310 313 315 317 319 319 319
306 306 307 308 307 306 307 306 307 306 305 304 303 303 305 305 305 306 306 306 306 306 306 307 306 306 307 306 306 307 308 309 309 309 308 308 306 308 312 313 312 312 312 312 311 311 312 314 312 313 313 313 314 313 313 313 313 312 313 313 314 314 314 314 314 314 313 313 314 313 313 314 313 312 312 311 310 309 308 309 309 309 310 310 311 312 315
306 306 306 306 306 306 306 306 306 305 304 304 302 302 304 304 305 305 305 305 305 305 305 305 305 306 306 306 306 307 306 306 306 308 309 308 310 310 312 313 313 312 311 309 310 310 311 311 312 312 312 313 313 311 311 311 311 311 310 311 311 311 312 313 313 314 313 313 312 312 312 312 312 312 312 311 310 308 308 307 307 307 308 309 309 309 309
306 305 306 306 306 306 306 305 304 303 303 302 303 304 305 305 305 305 306 306 305 305 305 305 305 306 306 306 307 308 308 307 303 304 306 307 308 308 309 310 310 311 310 310 310 310 310 309 310 311 311 311 310 309 310 309 310 310 309 309 309 309 309 310 311 311 311 312 312 313 311 311 311 311 311 310 310 309 308 307 307 306 306 306 306 307 307
306 306 306 306 306 306 305 304 303 303 303 304 305 305 305 305 305 305 304 304 304 304 303 303 304 304 305 306 306 306 307 308 306 303 305 305 305 305 306 308 309 309 309 309 309 309 309 309 309 309 310 310 308 309 308 308 308 308 308 308 308 307 307 307 307 309 309 309 309 309 310 309 310 310 310 310 310 309 309 308 307 305 305 306 305 306 306
307 306 305 304 304 304 304 304 303 303 303 305 305 305 306 306 303 303 304 303 303 304 302 302 302 303 303 304 304 305 306 307 307 307 306 305 305 305 305 305 307 307 307 307 308 308 309 308 309 309 309 308 307 307 307 307 307 307 306 306 307 307 306 305 304 304 306 306 306 308 307 308 308 308 308 308 308 308 309 308 309 306 305 304 303 303 303
306 306 305 305 304 304 305 305 304 305 304 304 304 305 305 304 303 304 304 304 304 303 302 302 302 303 303 303 304 304 305 306 306 306 305 305 305 304 304 304 304 305 305 305 306 306 307 307 307 308 307 308 307 306 306 306 306 306 306 306 306 306 306 306 306 306 305 305 305 304 305 306 306 306 306 306 306 306 306 306 306 307 307 306 306 305 303
305 306 307 305 305 304 304 304 305 304 305 304 304 303 303 302 302 302 302 303 302 301 301 301 300 302 303 303 303 303 303 303 304 304 304 303 303 302 303 303 303 303 303 303 303 304 304 305 306 306 306 306 306 306 305 305 305 305 306 305 306 305 305 305 305 305 305 305 305 305 304 303 304 303 303 303 304 304 304 304 304 305 305 306 306 306 305
Wind_Speed
3 3 3 4 1 1 1 5 11 16 15 17 20 18 16 13 12 10 7 13 15 15 15 11 8 6 6 6 7 7 7 8 4 1 5 10 7 4 7 8 8 9 10 11 12 13 14 16 17 19 18 17 17 17 18 17 18 19 18 18 19 20 19 19 19 19 17 17 17 17 17 18 18 19 18 18 17 16 16 16 15 17 18 17 17 16 16
2 1 1 1 2 1 4 6 7 7 10 13 13 14 15 17 13 10 11 9 13 12 15 16 15 13 12 12 12 12 14 13 11 10 8 10 9 6 3 7 8 9 10 10 11 13 14 16 17 18 17 17 19 19 18 18 18 18 17 18 18 19 20 19 17 17 16 16 16 17 17 18 18 18 17 17 17 17 17 17 16 16 16 17 17 17 17
5 4 3 3 6 4 6 8 9 10 10 10 11 11 13 13 13 12 12 12 11 6 3 6 7 6 7 8 10 11 13 17 19 17 15 13 10 8 6 3 4 4 6 8 9 12 14 15 16 16 16 17 17 19 18 19 19 18 18 17 18 18 18 18 16 16 16 16 16 18 18 17 16 17 17 16 16 16 17 16 16 15 16 17 17 16 17
6 6 6 4 4 8 10 11 11 11 12 13 13 12 11 13 13 13 14 15 14 10 11 10 11 13 13 13 12 12 11 14 16 17 15 13 12 13 11 3 1 4 5 7 9 11 13 15 16 16 15 16 17 18 18 19 18 18 18 18 19 18 18 15 16 17 16 17 16 17 17 18 17 17 16 16 16 17 16 17 16 15 16 17 16 16 15
7 7 2 3 4 6 11 15 15 14 15 13 12 13 13 15 13 13 15 15 10 10 10 13 12 12 15 16 14 13 14 14 15 16 17 16 15 15 11 5 4 6 7 7 9 10 10 12 14 17 16 15 17 18 17 16 14 16 19 19 17 16 16 15 16 15 15 16 16 16 17 17 15 15 16 17 17 17 18 16 15 17 16 16 16 16 15
6 3 1 2 5 12 11 0 7 15 17 16 17 15 15 15 15 12 11 10 7 9 9 9 9 10 10 9 10 11 11 11 13 15 15 16 17 16 12 8 6 5 5 6 6 8 9 10 13 13 15 17 16 15 15 15 17 16 17 18 16 16 16 16 15 15 15 16 16 16 15 15 15 16 16 17 17 16 15 16 17 17 18 19 18 17 17
6 4 3 6 11 10 6 3 4 2 4 5 9 9 8 7 10 13 13 11 11 11 10 9 10 10 10 11 12 12 11 9 10 12 14 14 12 11 10 9 9 6 5 6 7 7 9 9 9 11 14 15 13 14 15 17 17 15 15 16 16 16 17 17 16 16 16 17 16 15 15 15 15 16 17 16 17 16 16 16 17 18 19 19 19 17 19
6 6 6 9 7 7 1 3 3 3 4 4 5 10 12 12 8 2 8 8 7 8 8 9 8 9 10 11 10 10 13 13 12 13 13 13 13 12 7 5 4 5 7 7 8 7 7 8 10 11 12 12 14 15 15 16 16 16 15 15 16 15 16 18 18 18 18 18 17 16 16 16 17 18 18 18 19 17 16 15 15 16 17 17 18 19 20
9 8 9 11 4 5 5 3 5 5 6 4 6 10 12 6 3 1 3 4 6 9 9 8 8 8 9 11 12 12 15 15 13 13 12 9 6 5 6 6 6 5 7 8 9 8 8 9 10 11 11 12 13 14 15 16 15 16 16 16 17 17 17 18 18 18 18 18 17 17 17 18 19 19 19 19 17 15 16 16 16 17 17 17 16 18 20
8 9 8 8 10 12 8 4 7 4 5 3 1 5 4 6 4 2 2 4 4 7 7 6 7 8 8 11 10 11 15 12 8 5 4 4 4 4 5 5 6 6 6 7 8 9 10 10 11 9 10 11 12 12 14 14 16 16 17 18 18 17 17 17 17 16 16 17 17 18 18 19 20 19 18 15 16 15 16 17 17 17 15 15 16 17 18
8 10 10 9 9 5 6 7 8 6 3 3 1 1 9 6 3 3 3 5 5 6 7 7 7 5 9 9 7 8 11 7 6 4 2 3 3 4 4 6 7 8 8 9 10 10 10 10 9 10 10 11 11 13 13 14 15 16 18 18 18 17 15 14 13 14 15 16 16 17 18 18 17 17 17 16 15 15 16 16 16 14 14 14 15 15 17
9 9 10 11 6 4 4 7 4 6 4 2 5 7 5 7 4 3 4 5 6 7 7 7 6 6 8 8 3 10 10 8 5 5 5 5 5 4 5 5 7 8 8 8 8 7 7 7 7 8 9 10 11 12 13 14 15 17 17 15 13 12 12 14 14 14 14 16 16 17 18 16 15 15 14 14 15 16 15 14 14 15 14 15 16 16 16
10 11 9 7 6 4 0 5 4 6 3 4 5 6 4 4 1 2 2 5 5 6 8 6 6 4 4 8 10 10 9 8 6 5 4 5 5 6 7 7 8 7 7 6 6 6 5 4 3 5 7 9 10 10 11 13 15 14 12 10 11 12 12 13 14 15 14 16 17 16 15 15 15 15 14 14 14 14 15 14 14 14 16 16 17 17 17
11 10 12 10 7 2 3 6 12 6 5 7 6 4 3 4 2 0 3 3 4 5 7 7 8 10 12 13 12 10 8 7 6 6 7 7 6 6 6 6 7 7 6 5 6 5 5 3 3 4 6 8 8 9 11 12 12 10 9 10 11 12 13 14 15 15 15 14 14 13 13 13 13 13 13 13 13 14 13 13 15 15 14 15 16 16 16
8 10 10 8 9 5 7 10 3 4 10 3 6 2 2 3 1 3 1 2 3 4 8 9 10 11 11 11 9 8 8 7 7 6 7 7 7 7 7 7 8 8 6 6 6 7 6 6 4 3 6 7 7 7 8 9 8 9 8 9 10 11 12 13 13 13 13 14 12 11 12 14 15 14 13 14 15 14 13 14 15 15 15 16 17 16 16
11 11 10 6 0 7 6 6 4 6 8 10 10 10 7 1 2 2 2 1 4 5 7 7 8 9 9 8 7 8 7 7 5 4 4 5 6 6 6 6 7 7 5 5 5 6 6 7 7 6 2 6 6 6 4 2 2 5 7 7 8 10 10 11 11 11 11 13 12 12 13 13 14 14 14 13 13 13 14 14 14 16 15 15 17 17 18
5 7 6 7 15 12 6 7 8 10 13 12 11 10 8 5 1 1 3 2 2 4 5 7 6 6 5 6 6 6 6 5 5 4 4 4 5 6 6 6 6 5 4 5 5 5 6 8 8 9 6 4 6 6 5 3 1 2 5 6 7 8 9 10 10 10 10 10 12 12 12 13 13 13 15 14 13 12 13 14 15 15 15 16 17 16 18
7 13 14 12 12 15 12 8 6 9 12 13 12 11 9 6 6 4 4 2 2 2 4 4 3 4 4 5 3 4 3 4 3 3 3 3 3 4 5 4 4 5 3 4 5 5 6 7 8 8 8 7 7 6 4 3 2 0 3 5 7 8 8 9 9 10 11 11 12 12 13 12 12 12 13 14 14 13 14 16 14 15 16 16 16 15 16
7 6 4 11 12 13 14 12 12 11 9 9 12 13 9 9 8 5 4 2 2 1 3 3 2 3 5 5 4 4 3 3 4 4 4 4 4 4 4 4 4 3 4 4 4 4 6 7 7 7 7 6 5 4 4 3 2 1 1 3 4 5 6 7 8 9 10 10 10 10 12 11 12 12 12 12 13 13 14 15 15 15 16 15 16 16 17
10 11 12 15 17 16 16 14 11 11 10 10 10 11 11 10 9 7 5 3 1 1 2 3 4 4 4 5 5 5 5 5 4 4 4 5 4 4 4 4 4 3 4 4 4 4 5 6 7 7 7 7 6 5 4 4 2 0 1 3 4 4 5 5 6 7 8 8 8 8 9 11 11 11 12 12 13 14 14 15 15 16 15 15 15 16 17
10 13 15 16 17 19 19 18 14 6 4 7 11 13 13 11 9 7 4 4 2 3 4 3 3 4 5 5 5 6 5 5 5 6 5 5 6 6 6 6 5 5 4 4 4 5 5 5 6 6 7 6 5 5 4 3 2 2 2 1 1 4 5 5 4 3 4 6 7 7 7 8 9 9 10 12 13 12 14 13 15 16 15 15 15 16 16
12 11 9 6 9 9 9 6 4 9 9 9 12 13 14 13 9 8 5 2 2 4 5 5 4 5 5 6 6 6 6 7 7 7 6 6 7 7 6 6 6 6 5 5 5 5 5 5 5 6 7 6 6 5 4 3 2 3 3 3 4 4 3 3 4 5 5 5 6 5 7 7 8 10 8 8 7 8 10 10 14 15 11 13 15 14 15
11 10 10 9 10 14 15 15 14 11 12 10 12 13 13 14 12 8 6 2 2 5 5 4 4 5 5 6 6 7 7 7 6 5 6 6 6 6 7 7 9 9 9 7 6 6 5 5 5 6 6 6 6 5 5 4 4 4 3 3 3 3 3 3 3 1 0 1 1 2 4 4 5 7 8 10 13 15 15 11 8 8 12 16 17 17 13
18 17 16 15 14 17 17 15 14 13 10 11 14 15 15 14 13 9 4 3 2 4 4 4 5 5 5 6 6 7 7 7 7 8 8 8 7 7 8 8 8 9 8 9 9 8 6 6 6 6 6 6 6 6 5 4 4 4 4 3 3 4 4 4 4 3 2 1 1 1 2 3 4 5 6 7 6 1 2 7 11 12 12 13 14 14 17
14 12 11 13 15 18 18 17 16 14 13 12 13 15 15 14 13 12 3 2 1 4 5 4 5 5 5 6 6 7 7 8 7 7 8 8 9 9 9 10 9 8 8 8 8 7 6 7 8 7 8 8 7 7 6 6 6 6 5 5 5 5 5 5 5 5 4 4 3 2 2 2 3 3 6 6 6 7 4 1 6 9 10 10 11 13 14
15 14 15 17 17 18 17 16 19 18 16 15 15 16 16 15 14 15 8 5 2 3 6 4 5 6 7 7 6 7 7 8 8 7 8 9 9 10 11 11 10 9 9 8 8 7 7 8 7 7 8 8 8 7 7 6 6 6 6 6 6 5 6 6 7 6 5 5 4 4 4 4 4 3 3 4 5 6 6 7 6 5 8 12 13 14 14
14 15 16 18 20 20 17 17 16 13 13 13 15 15 15 15 14 11 9 4 4 4 6 6 6 5 6 8 8 8 8 7 8 8 8 9 10 10 10 9 10 10 9 8 8 8 8 8 8 7 8 7 7 7 6 7 6 6 6 6 7 8 10 8 6 6 5 4 4 4 3 3 2 2 2 2 2 3 4 4 5 5 6 6 8 11 10
17 16 17 18 18 17 15 14 15 14 15 16 16 16 15 11 11 8 8 6 6 5 4 5 7 6 7 7 7 8 8 9 9 9 9 9 8 8 9 10 10 10 10 9 9 8 8 7 7 7 8 7 7 6 6 6 6 6 6 6 6 6 7 7 6 6 5 4 4 3 3 2 2 2 2 2 2 2 3 4 5 5 6 5 6 7 11
20 20 20 21 22 19 16 15 15 16 15 14 14 12 13 13 12 9 7 4 4 6 5 4 6 7 7 7 6 7 8 10 10 10 10 9 8 8 8 9 10 11 11 10 10 9 8 7 7 8 8 8 7 7 6 7 7 7 7 7 7 7 6 6 5 5 5 5 5 3 2 1 1 1 1 1 2 3 3 4 5 5 6 6 7 8 7
20 21 21 20 19 18 18 17 15 15 16 13 13 14 11 10 11 8 5 4 4 4 6 5 5 6 7 7 6 6 7 9 9 9 10 10 10 10 9 9 9 10 11 12 11 10 10 10 10 10 9 8 8 8 8 7 6 7 7 8 9 8 7 6 5 5 5 4 4 2 0 1 1 1 1 1 2 3 4 4 5 5 6 6 7 8 9
19 17 18 16 16 16 17 17 16 16 15 14 14 14 11 12 11 8 6 3 2 2 4 6 7 8 8 7 7 6 6 8 8 9 10 10 10 10 10 11 10 10 11 11 11 11 11 11 11 11 10 10 10 9 9 8 7 7 7 6 7 9 7 5 4 5 5 4 3 3 2 2 2 2 3 3 3 4 4 4 5 5 6 6 7 8 8
17 13 15 15 14 15 16 15 15 15 15 13 14 13 11 11 11 9 7 5 4 4 5 6 8 9 7 7 7 8 9 9 10 10 10 10 10 10 11 11 11 11 12 11 11 11 11 11 12 11 10 10 10 10 8 8 7 6 6 5 5 4 6 5 5 5 4 4 3 2 3 3 2 2 2 4 4 5 5 5 5 5 6 6 7 7 9
14 15 16 15 15 16 15 15 15 14 14 15 14 13 11 10 10 8 7 5 6 5 5 7 7 8 9 8 8 9 9 10 11 12 12 11 10 10 11 11 12 12 12 12 11 11 12 11 10 10 11 11 10 10 9 8 8 7 7 7 6 6 6 7 6 2 5 4 4 4 3 3 3 2 3 3 4 4 4 4 5 5 5 6 6 7 8
12 10 10 13 15 15 17 15 12 9 9 8 10 10 10 11 10 7 6 7 8 8 8 8 8 9 9 9 8 8 9 10 11 11 12 11 11 10 11 12 12 13 13 13 13 12 11 11 10 9 11 11 11 10 10 10 8 8 8 7 6 7 7 6 6 5 5 4 4 3 1 2 3 4 5 5 5 4 4 4 3 4 5 6 6 8 8
5 5 5 8 10 8 9 10 10 8 8 8 8 7 7 8 9 8 8 9 10 9 10 9 9 8 8 10 10 11 11 11 10 11 12 12 12 12 12 12 12 12 14 14 13 12 12 12 11 9 10 11 12 11 10 10 9 8 8 7 8 7 7 7 7 6 6 5 4 3 3 3 4 4 4 4 5 5 4 2 2 2 3 5 6 8 7
2 2 3 5 7 9 11 9 7 6 5 4 5 7 8 8 9 9 8 9 10 11 12 12 11 11 11 11 12 13 12 12 13 13 13 13 12 11 12 12 12 13 14 15 14 12 10 10 15 15 10 10 11 12 11 9 8 8 7 7 7 7 7 7 7 7 7 6 6 5 4 2 2 3 5 6 5 5 5 5 4 3 3 3 4 5 6
4 4 3 4 5 7 7 5 5 5 5 3 1 2 3 7 8 7 5 6 10 12 12 12 13 13 14 14 14 14 13 11 10 11 11 10 9 11 12 13 13 14 13 12 11 11 10 10 13 14 11 10 11 12 11 13 6 7 7 8 8 7 8 8 8 7 7 7 6 6 6 4 3 3 3 4 5 6 6 5 5 5 3 4 4 5 5
17 18 18 16 16 14 12 10 7 10 12 12 9 6 6 8 7 10 10 8 8 12 12 14 14 15 15 15 15 14 13 12 12 13 12 13 12 14 15 15 14 12 13 11 10 10 10 12 14 11 10 10 10 11 13 17 11 8 8 9 8 8 9 8 8 8 8 7 7 7 7 7 7 6 5 5 5 5 5 7 6 6 5 4 4 3 4
21 18 16 16 17 17 14 12 10 14 14 13 8 11 16 13 13 16 15 13 12 11 12 13 14 13 13 14 14 13 13 13 13 14 14 15 14 17 17 15 14 12 10 9 10 11 12 12 10 10 10 10 10 11 11 13 13 10 10 9 10 9 9 9 9 9 9 8 9 9 8 8 7 7 7 6 5 6 5 4 4 5 5 5 5 5 4
19 18 17 17 19 16 14 12 12 15 12 11 10 14 14 12 15 18 17 16 13 12 11 11 12 13 13 14 14 14 13 13 12 13 14 13 12 13 13 14 13 11 11 13 12 12 16 19 13 11 10 11 11 9 9 12 10 10 10 10 10 10 9 9 9 9 9 9 9 9 9 9 8 8 7 7 7 6 7 7 7 6 6 5 5 5 5
20 18 19 21 20 16 15 13 18 18 14 15 19 14 12 16 18 20 17 15 12 13 14 12 12 13 14 15 15 15 13 12 14 15 13 12 13 12 13 13 12 12 12 12 12 13 15 16 14 12 11 11 12 13 10 13 11 10 10 10 10 10 10 10 10 10 9 9 9 9 10 10 10 10 10 8 8 8 8 7 7 6 6 5 5 5 5
17 19 20 20 17 16 18 15 16 18 18 18 16 14 16 18 17 16 14 12 12 13 14 15 18 15 13 14 15 14 13 13 14 15 16 15 14 11 12 12 11 12 16 15 14 14 13 14 14 14 13 11 11 17 16 11 11 11 10 11 11 11 11 11 11 10 10 9 9 9 9 9 9 10 11 11 10 10 9 9 8 8 8 7 7 7 7
16 15 14 14 14 15 14 14 16 16 15 15 14 13 13 14 15 15 15 13 13 14 15 14 14 15 14 13 12 12 11 12 14 14 15 15 16 15 13 10 10 13 18 14 14 12 13 12 13 12 18 15 13 18 16 12 11 11 11 11 12 12 11 11 11 10 10 10 10 10 10 10 9 9 10 9 10 10 10 10 10 9 9 8 8 8 8
16 14 12 12 12 11 11 12 12 13 13 13 12 12 13 12 12 12 12 13 12 12 12 12 13 13 13 13 13 12 11 11 11 10 11 11 13 14 14 11 10 14 18 12 12 12 12 13 13 16 20 20 20 18 13 12 12 12 12 12 12 12 12 12 12 11 11 11 10 10 10 10 10 10 10 10 10 10 10 10 10 9 9 9 9 9 10
13 13 14 13 13 12 12 12 12 11 10 10 12 13 12 13 14 14 13 13 13 13 13 12 12 11 12 12 11 11 10 10 11 10 10 11 11 11 11 12 13 12 14 15 11 12 12 14 17 21 18 16 16 17 12 12 13 13 12 12 12 12 12 12 12 11 12 11 11 10 10 10 10 10 10 11 11 10 10 10 10 10 10 10 10 11 11
15 15 14 14 15 13 11 11 9 10 11 13 14 14 13 12 13 13 13 13 13 12 13 13 14 14 12 11 10 10 11 11 12 12 11 10 10 9 10 12 11 12 17 17 12 12 12 21 22 19 18 17 17 13 12 12 12 13 13 13 13 12 12 11 11 11 11 11 11 10 10 9 9 10 9 10 11 11 11 12 9 10 11 11 10 10 10
13 14 14 14 12 12 12 11 12 14 14 14 13 11 11 11 11 11 12 13 12 12 12 13 13 13 12 12 10 8 8 9 10 10 10 9 10 10 12 15 14 15 13 12 12 13 14 15 17 19 17 18 17 12 12 12 12 12 13 13 13 12 12 12 12 11 11 11 11 11 11 10 10 9 9 9 10 11 11 13 13 12 10 9 10 10 10
12 13 12 12 12 11 11 12 13 13 13 11 10 9 9 10 11 11 11 11 12 12 13 12 12 12 13 12 12 12 10 8 9 10 10 9 9 10 10 10 12 15 13 11 14 16 21 20 18 17 17 17 13 12 13 12 12 12 12 12 12 13 12 12 12 11 11 11 11 11 11 11 10 10 10 10 10 10 11 11 11 12 12 12 13 11 12
12 11 11 12 12 13 12 12 11 11 10 9 9 8 8 9 10 10 10 10 11 11 11 12 12 12 11 12 12 10 10 10 9 8 8 9 9 9 9 11 16 15 11 10 10 10 16 16 16 16 15 15 12 12 12 12 12 12 12 12 11 12 12 12 12 11 11 12 11 11 11 12 11 11 11 11 11 10 10 11 12 12 11 10 10 11 11
11 11 12 11 11 11 11 10 10 9 8 8 8 8 7 8 9 9 9 9 9 10 10 9 9 9 9 9 9 9 9 10 9 8 9 10 10 10 10 10 11 15 15 11 11 10 13 16 16 16 13 11 11 12 11 11 12 12 11 12 11 11 12 12 12 14 12 12 12 11 11 11 11 12 12 11 12 11 11 11 11 12 14 13 12 11 11
10 10 9 9 9 10 11 10 9 9 8 9 9 9 9 9 10 10 10 9 8 9 9 9 9 9 8 9 8 9 9 8 9 11 9 9 9 11 12 10 11 11 11 10 10 10 10 10 11 12 11 11 11 12 12 12 11 11 11 11 12 11 11 11 10 11 12 11 11 12 12 11 11 12 11 11 12 12 12 12 12 12 12 12 11 11 11
11 9 8 8 8 9 9 10 10 9 9 9 9 9 9 9 9 9 10 12 9 9 9 9 9 9 9 8 8 8 8 9 8 8 9 9 9 8 9 11 9 10 10 9 9 9 9 10 10 13 13 11 10 10 10 12 11 11 11 11 9 10 11 11 11 10 10 10 10 10 11 11 11 11 11 11 11 11 11 12 12 11 11 11 11 11 11
Wind_Direction
359 324 348 353 9 339 60 201 197 200 204 210 217 223 226 220 226 239 201 217 225 235 239 234 244 241 263 268 266 285 321 306 300 345 322 326 301 178 180 184 192 199 200 204 208 208 208 210 208 207 208 207 207 206 206 202 202 202 197 195 195 196 196 198 199 198 196 196 198 199 199 198 202 204 205 206 207 206 205 205 206 206 205 201 200 201 202
285 197 285 231 216 113 229 229 213 209 211 217 228 236 234 235 242 246 254 242 236 232 244 252 258 262 261 269 275 282 281 282 298 306 299 307 296 274 225 173 186 194 202 204 204 205 207 210 210 209 207 207 206 204 204 202 203 202 196 196 196 197 198 200 197 192 192 192 192 194 196 198 200 201 203 203 205 206 205 205 205 205 205 204 204 202 202
225 203 205 203 236 266 258 234 239 229 221 227 225 230 232 245 249 246 250 255 259 246 307 315 320 327 325 304 283 282 291 296 296 296 294 288 277 262 280 183 176 185 197 204 205 206 206 208 210 209 209 207 207 207 204 203 201 200 197 197 199 199 201 199 192 188 188 190 188 191 196 197 196 198 201 202 203 204 205 205 205 202 204 206 207 206 205
218 180 205 203 264 261 260 252 237 228 219 220 214 220 219 227 231 241 250 253 247 247 252 260 259 267 271 272 275 278 277 278 282 284 283 277 264 269 292 273 194 196 214 206 211 213 212 209 207 210 210 208 206 209 205 204 200 197 198 197 199 201 201 192 190 189 188 187 188 191 191 195 195 195 196 200 202 203 203 204 203 203 206 206 208 209 208
213 137 191 239 276 275 252 237 228 225 225 229 227 225 221 225 228 229 232 244 257 264 258 258 253 252 256 257 260 266 268 270 274 278 281 283 281 288 297 269 219 238 244 236 219 226 224 215 213 212 208 208 209 209 207 203 197 197 200 200 198 198 196 193 190 190 186 186 188 190 192 191 192 192 194 200 203 203 205 204 202 209 205 207 209 211 212
221 127 248 307 238 224 234 355 211 213 217 213 221 223 219 217 215 236 248 262 262 237 233 239 252 255 261 268 269 266 266 268 267 270 274 280 287 290 293 299 281 262 246 252 253 233 232 231 223 216 211 212 211 206 204 197 199 200 198 199 194 192 191 193 191 188 189 190 191 193 189 187 190 194 196 201 204 205 205 205 209 212 214 217 218 214 219
250 259 271 227 222 229 83 128 82 125 209 229 232 236 243 242 232 238 245 246 247 256 262 267 275 281 281 276 279 279 273 281 277 275 276 278 280 282 279 272 270 259 247 252 252 252 245 240 232 222 216 216 210 205 202 200 198 196 197 197 195 191 190 190 189 188 191 193 193 191 189 188 193 198 201 204 205 206 207 207 208 213 216 217 219 216 221
270 271 222 221 211 54 159 111 92 99 150 176 215 243 240 241 246 304 267 266 285 289 290 287 294 295 301 298 284 274 273 269 265 269 273 273 274 275 286 305 307 284 271 262 258 255 251 239 233 226 223 213 209 206 201 201 199 196 195 196 199 196 192 190 189 190 190 191 190 189 191 192 195 200 202 204 205 204 208 211 212 213 216 217 215 220 224
243 227 231 236 350 297 228 173 162 168 168 145 215 226 206 135 115 228 265 287 285 284 290 298 292 307 301 281 271 264 264 258 249 255 264 279 296 313 309 303 299 302 290 276 270 260 245 245 238 230 222 212 209 204 199 199 194 194 192 194 197 196 194 191 191 190 190 190 189 190 192 194 199 203 204 206 205 202 207 211 212 212 213 214 215 221 222
230 243 240 236 237 247 228 180 106 102 90 45 56 300 186 129 113 102 268 271 292 295 302 312 332 311 280 265 263 261 256 247 240 241 256 269 282 295 309 314 299 290 283 283 270 259 258 245 241 235 221 211 203 203 201 195 193 193 195 198 197 197 197 196 194 192 191 189 189 191 192 197 200 202 204 203 204 201 206 209 213 214 212 212 212 215 218
218 226 240 234 234 228 37 135 134 107 127 84 115 181 244 112 52 47 306 295 303 302 311 322 330 280 248 252 256 36 13 20 2 324 350 311 328 333 329 324 321 324 323 310 295 275 255 249 233 223 220 211 201 202 200 196 194 198 203 205 202 200 201 196 195 193 191 190 192 193 198 202 201 201 202 203 202 201 207 209 214 215 215 218 218 216 221
230 234 225 233 228 251 180 158 112 105 110 56 225 236 220 104 60 8 314 307 309 309 314 313 284 257 247 249 15 359 354 342 354 334 338 335 336 325 331 339 349 331 317 308 298 271 238 232 232 209 206 206 204 200 198 199 200 204 208 209 204 202 198 196 194 191 190 191 196 198 201 201 201 204 203 204 205 205 208 209 211 213 213 219 220 221 222
221 232 247 253 249 234 148 197 147 108 30 318 234 234 83 152 60 262 303 288 308 309 302 298 278 255 301 321 324 336 332 322 337 338 337 335 331 332 336 355 343 334 327 333 327 333 353 320 279 211 197 200 200 196 196 201 209 210 206 200 196 196 194 195 192 190 192 195 198 200 200 200 202 204 204 206 206 208 212 212 212 213 217 222 226 230 227
221 215 230 239 259 12 47 217 256 249 253 221 236 57 183 155 226 123 267 285 286 304 287 281 274 285 296 300 304 311 321 327 334 328 335 337 338 340 354 345 347 346 333 357 340 359 359 320 243 217 196 201 199 198 203 208 209 211 203 197 194 191 190 194 196 195 197 199 198 199 199 199 202 205 207 208 209 210 214 215 217 218 220 224 231 231 231
228 228 229 223 224 112 16 1 277 203 230 351 14 320 129 338 332 325 337 296 336 293 284 284 282 279 279 283 292 305 310 318 325 335 340 341 340 342 343 348 4 346 352 357 5 355 2 355 344 216 196 191 197 195 207 212 209 205 205 194 190 190 190 195 198 197 197 196 195 197 197 199 201 203 203 206 210 209 208 217 219 218 218 227 231 230 232
220 210 216 206 328 23 6 357 265 20 329 331 323 325 289 70 323 287 298 309 343 311 294 296 291 289 289 284 288 292 291 304 314 330 341 339 335 335 347 356 360 349 6 357 360 16 17 16 5 359 191 177 182 184 158 76 183 186 186 188 191 194 194 198 199 201 199 198 197 198 198 199 202 205 207 206 207 208 208 213 223 227 225 223 228 229 230
288 247 246 350 330 301 324 342 338 333 339 337 341 315 311 297 288 332 273 349 327 320 318 296 297 288 305 303 302 293 297 298 310 322 336 343 343 343 355 358 359 341 9 356 10 24 31 34 28 20 31 96 105 93 60 42 72 171 187 185 187 196 198 201 201 204 202 199 201 202 202 200 201 206 209 207 209 207 211 218 225 229 227 227 227 229 231
291 274 273 281 280 290 293 320 347 329 326 328 330 332 330 344 333 324 328 296 349 358 343 323 329 351 322 303 314 324 343 334 357 349 343 5 357 351 352 356 357 335 360 18 16 34 41 42 45 36 33 42 55 50 39 36 38 91 198 193 197 198 197 198 198 200 202 203 205 206 206 206 205 207 207 208 212 210 216 222 221 226 230 230 230 230 231
291 271 249 257 273 281 297 307 313 309 309 329 331 328 338 336 328 320 302 313 32 19 16 5 324 339 349 335 342 354 5 12 10 15 28 31 31 20 11 7 347 5 3 40 35 44 50 44 50 52 47 46 42 36 32 12 2 355 226 198 198 198 204 201 201 205 209 211 209 210 210 213 212 212 214 215 217 217 223 221 217 224 227 230 231 229 233
253 265 283 293 291 289 290 286 293 301 313 330 319 312 309 311 309 305 306 279 89 355 60 14 359 21 19 11 354 16 22 21 15 12 30 44 49 52 43 37 35 36 39 39 47 45 51 47 51 54 55 50 42 34 31 20 26 336 186 185 183 183 195 198 199 202 210 223 228 221 211 217 222 223 226 227 229 230 229 229 228 229 228 230 233 236 239
267 269 267 269 281 280 273 270 268 286 340 328 312 310 311 302 302 307 284 316 2 50 48 37 39 32 32 26 20 34 30 22 22 27 40 45 45 45 53 53 47 55 56 67 63 63 61 57 59 63 60 54 52 55 49 39 31 103 120 130 88 167 175 172 177 174 202 196 209 226 239 234 229 235 233 230 235 240 238 238 240 236 232 237 235 241 243
257 256 259 261 258 260 258 241 344 326 328 325 308 306 309 306 292 291 297 300 50 54 49 44 48 53 38 33 22 38 36 35 26 24 32 35 37 49 54 60 64 69 60 59 68 69 67 56 64 68 66 63 52 53 54 53 76 111 122 142 152 154 166 171 164 170 196 191 198 210 217 230 242 243 251 274 297 269 255 232 234 245 258 255 254 252 250
255 256 259 264 272 278 282 290 296 309 312 307 295 297 299 297 296 287 271 245 74 65 50 25 41 53 45 41 36 39 40 32 30 30 43 45 44 45 45 58 63 65 65 67 70 64 64 70 74 71 69 66 62 55 50 61 78 82 115 129 128 114 95 70 33 64 68 304 102 239 252 253 250 250 251 213 217 239 255 274 285 278 263 257 263 266 271
271 275 280 286 280 273 280 283 291 291 296 291 285 287 286 288 288 286 276 274 133 90 70 52 29 36 45 49 42 46 46 42 34 39 44 44 40 49 55 54 52 51 48 52 55 57 66 80 86 84 77 68 65 61 59 64 67 80 83 87 86 76 76 91 71 51 63 55 292 252 248 258 261 285 277 275 285 297 229 263 281 276 268 274 278 279 280
265 271 275 274 272 272 273 279 279 280 280 278 277 276 280 284 281 269 233 244 318 94 82 61 58 35 48 64 51 43 46 52 46 43 52 53 49 45 50 52 50 50 51 52 46 45 46 63 73 77 85 78 70 70 71 65 73 77 77 77 76 69 70 63 63 51 51 57 46 34 359 310 289 278 272 282 286 288 289 243 243 263 286 280 269 272 273
247 254 262 267 268 268 271 272 265 262 266 266 269 269 268 267 264 266 253 160 219 97 89 70 62 50 45 58 56 52 52 52 50 49 56 53 52 51 48 47 47 49 53 53 56 59 61 63 71 60 54 54 63 72 75 77 77 81 78 72 65 63 72 71 66 61 57 53 41 32 24 5 2 328 324 323 315 316 304 295 283 253 237 238 247 256 257
239 241 248 260 263 263 258 257 263 266 265 265 262 261 260 259 252 242 243 180 132 99 98 93 83 70 69 70 68 61 61 60 60 56 55 56 55 53 52 53 53 56 58 55 52 47 51 62 66 62 56 45 46 58 69 76 79 79 77 81 94 83 68 59 71 69 67 61 60 60 50 39 25 3 21 353 308 300 293 297 308 302 312 288 240 218 252
255 250 243 244 250 255 254 250 255 261 258 254 256 261 261 248 238 236 232 196 149 117 97 92 99 94 82 69 71 74 73 67 63 56 53 52 53 56 54 54 55 52 54 55 56 47 40 48 53 57 49 33 21 46 69 74 74 68 66 72 70 67 69 70 67 68 71 67 62 63 52 61 28 32 357 340 330 309 293 296 296 301 302 299 309 316 295
258 252 247 243 247 252 257 263 267 269 267 254 246 248 235 220 223 227 227 215 158 133 112 99 104 101 92 85 69 68 69 70 66 63 60 55 51 55 58 57 57 55 53 51 51 50 52 47 44 44 41 34 31 16 50 60 56 50 43 42 45 50 56 61 61 65 68 67 62 51 61 41 45 50 357 343 315 305 317 326 324 325 310 308 307 293 276
263 259 250 247 242 240 244 248 248 252 254 250 239 228 224 219 217 216 220 199 178 145 121 113 106 101 104 97 82 72 72 70 70 70 66 61 55 51 53 59 61 55 52 47 44 42 41 41 39 37 32 31 37 31 31 44 50 55 52 53 54 44 46 28 51 69 59 57 60 198 116 62 53 303 15 12 358 1 354 2 350 328 328 335 317 308 317
271 258 246 238 237 239 238 238 236 236 232 226 224 223 212 213 215 214 208 197 176 148 143 137 110 102 100 103 103 90 80 78 72 71 67 62 56 55 55 54 55 53 49 40 36 36 37 36 35 32 25 26 32 35 36 35 35 43 46 49 81 102 54 333 39 49 59 45 50 27 31 14 47 29 19 355 3 356 352 357 346 349 347 337 336 337 334
266 253 244 237 234 234 234 226 219 219 217 208 207 206 202 208 209 209 198 178 160 160 149 125 114 113 114 114 115 107 97 88 79 74 68 61 57 55 56 56 56 54 52 48 41 35 34 33 32 27 24 25 29 34 38 39 36 43 38 36 49 70 78 20 56 73 53 57 37 59 42 354 13 348 357 357 355 349 355 1 358 359 355 345 346 351 352
234 225 231 225 224 226 224 212 204 198 194 197 199 195 195 204 206 204 192 162 143 159 145 127 128 124 116 110 103 102 98 89 82 78 72 63 57 55 55 56 55 56 52 47 42 38 35 32 29 25 27 27 28 33 32 36 38 37 34 21 31 39 35 48 343 9 62 45 48 14 5 359 338 330 5 339 348 347 354 355 1 352 359 353 346 346 4
228 227 220 202 199 202 203 193 195 182 179 193 199 199 196 197 197 188 167 163 156 152 134 130 125 119 111 97 80 66 67 69 67 68 68 66 62 60 62 60 56 53 50 44 43 41 37 28 20 22 24 28 29 30 33 33 35 37 33 34 37 37 37 38 31 39 51 48 39 49 9 326 325 340 335 343 353 3 345 339 358 2 348 344 346 342 354
237 233 237 191 184 192 181 176 179 174 172 186 195 197 197 191 187 185 174 170 160 150 133 121 116 111 94 87 81 77 71 70 70 71 71 67 63 57 53 51 49 51 48 42 34 32 27 24 20 22 19 30 32 31 33 37 38 38 34 39 39 41 37 34 34 32 16 23 31 24 15 352 342 327 318 322 335 339 345 360 336 356 344 339 338 337 343
276 247 186 171 156 164 166 160 148 143 168 182 214 192 181 184 174 162 169 169 153 146 132 125 121 106 95 88 85 80 76 72 72 69 69 66 64 60 54 47 44 45 44 40 32 30 25 15 2 14 35 35 37 35 20 18 46 41 46 41 44 44 46 37 28 33 31 16 11 13 13 21 325 346 330 322 322 335 336 335 335 325 319 327 330 338 339
66 83 60 90 89 98 96 106 131 141 154 143 152 101 129 126 135 121 112 123 133 135 131 125 123 116 105 98 90 85 79 72 68 71 68 61 58 58 56 52 46 44 39 35 19 14 14 23 17 13 29 39 42 41 19 351 27 48 48 48 52 48 48 46 39 30 26 24 6 5 348 332 332 353 342 339 338 340 333 331 340 328 333 330 332 331 343
41 45 47 47 51 57 57 52 84 94 74 55 36 40 69 78 90 104 87 67 83 106 109 112 107 99 97 95 89 82 78 75 74 71 66 63 60 63 58 53 47 40 38 31 18 16 14 13 19 28 33 38 38 40 17 352 355 40 47 46 45 47 48 48 48 39 33 28 19 17 12 4 358 358 0 359 354 347 356 346 342 335 333 325 328 343 340
41 41 46 53 56 44 36 36 49 72 64 61 49 79 67 57 62 70 74 72 73 78 82 85 83 81 81 80 76 71 68 68 68 71 73 70 65 63 63 56 52 43 32 21 25 25 20 21 28 28 27 21 25 36 20 5 15 49 50 55 52 51 49 51 50 49 42 38 34 25 28 23 11 6 1 3 1 348 357 36 354 334 321 333 323 327 326
44 42 45 52 55 41 41 39 50 62 55 54 49 51 67 62 66 67 65 61 54 61 67 70 79 81 76 74 73 70 66 61 62 68 71 66 63 64 62 54 44 38 33 30 31 29 28 27 29 34 29 26 20 18 27 22 31 44 44 45 48 51 49 47 47 43 41 36 35 32 31 31 28 22 17 6 4 8 1 352 356 1 354 353 335 332 341
38 43 46 51 53 43 47 41 53 54 52 55 57 51 53 62 58 58 52 50 42 47 51 49 57 68 74 77 76 74 68 60 58 59 62 65 63 57 53 48 32 32 31 35 34 33 33 33 29 26 24 23 26 22 28 30 35 42 43 41 40 41 43 41 41 42 39 34 32 30 27 22 25 27 27 22 19 15 15 12 9 4 7 5 2 360 2
37 37 45 49 48 43 44 41 49 56 53 50 44 41 48 60 63 64 60 55 49 51 53 48 47 50 55 64 72 74 72 68 65 60 55 55 53 57 56 49 32 34 33 39 40 39 36 34 29 25 21 20 26 29 34 39 40 42 43 42 41 41 39 38 37 33 29 29 28 29 30 27 23 20 14 14 20 22 20 21 19 19 17 19 18 18 22
40 40 39 41 44 45 46 47 50 49 47 50 44 38 40 51 60 61 55 50 50 53 53 50 39 41 42 41 44 49 58 65 65 64 62 57 53 50 53 49 39 36 38 43 42 44 38 32 27 25 25 28 29 30 36 39 40 40 42 43 43 42 42 40 37 34 31 28 27 26 25 23 24 23 20 18 14 13 13 18 22 21 17 17 20 21 22
45 44 43 45 46 46 49 52 51 51 51 50 49 44 39 40 47 58 61 56 46 43 45 44 46 42 39 43 45 44 38 39 45 52 58 59 53 45 40 43 40 39 39 45 45 44 38 30 25 21 28 28 31 33 37 38 37 38 40 40 42 42 41 41 40 37 35 31 29 28 26 26 24 24 23 20 16 17 14 15 12 14 19 28 34 31 23
31 37 39 43 51 49 45 46 47 51 57 59 54 46 39 46 51 52 55 54 52 46 44 43 42 47 50 49 49 50 50 50 46 43 50 51 50 41 28 38 40 39 38 39 46 43 36 27 13 12 18 21 32 36 40 39 38 37 37 39 40 40 41 39 38 38 36 35 33 33 35 34 33 30 31 31 28 26 21 17 16 17 18 25 31 37 36
36 41 40 38 40 47 49 53 51 52 54 54 52 45 42 47 51 52 51 55 54 50 49 50 48 40 33 42 52 54 57 54 51 52 53 51 52 49 37 38 43 42 43 43 40 34 30 21 17 12 16 26 31 40 42 41 39 39 38 38 38 38 37 37 38 37 34 32 32 30 30 34 40 42 37 34 33 31 25 24 25 24 25 25 24 24 28
32 34 38 42 39 39 44 48 50 52 52 53 52 49 42 46 54 58 59 58 58 56 54 53 52 50 47 42 35 33 49 61 55 41 44 50 49 46 40 37 35 38 43 44 41 34 26 23 16 13 16 28 35 39 39 40 40 41 40 38 37 35 34 34 34 35 34 33 28 30 31 33 35 39 42 44 40 35 31 31 27 23 21 22 22 24 26
37 38 37 37 38 38 41 42 45 46 47 48 52 54 50 50 54 56 56 58 60 59 58 55 52 49 47 46 45 42 34 37 56 45 30 36 37 38 36 33 28 22 32 50 47 38 28 20 16 15 21 29 37 39 39 38 38 38 40 41 38 36 34 31 30 30 30 31 29 29 29 29 30 32 32 34 38 42 41 37 35 33 29 29 30 29 30
36 39 39 37 35 35 37 38 39 40 39 39 45 49 51 56 56 53 52 53 56 58 57 54 51 50 49 47 46 45 45 44 49 53 40 41 38 35 34 33 30 26 28 34 34 39 30 23 20 16 27 34 36 36 39 41 39 39 39 37 42 39 35 35 30 26 30 29 28 29 29 30 27 26 28 29 32 34 37 43 41 36 31 26 25 26 27
32 34 34 33 34 33 32 37 40 35 33 34 40 42 48 55 58 53 50 53 59 63 60 57 55 51 50 50 49 48 45 45 46 50 52 47 44 40 37 37 33 30 29 26 25 27 31 26 24 23 28 36 38 35 36 38 42 39 39 38 37 42 40 37 41 36 32 33 31 28 28 29 27 23 25 32 31 31 32 34 38 42 41 39 35 29 24
32 36 38 40 41 42 41 41 38 36 34 36 38 39 46 55 57 52 47 45 52 53 57 56 50 46 47 48 48 44 38 43 46 40 37 40 41 42 37 35 38 32 29 29 29 24 26 27 26 21 26 31 37 40 35 32 36 39 36 39 40 36 33 34 37 39 36 33 36 34 29 29 30 27 27 28 28 31 31 32 31 31 33 37 38 38 38
42 38 41 44 46 46 44 43 40 40 40 39 37 38 41 47 51 53 48 38 43 50 48 50 51 42 36 39 40 43 43 39 34 42 44 37 33 36 38 33 34 35 31 29 30 27 27 24 25 27 23 25 28 30 38 38 38 36 35 34 34 42 42 32 27 34 40 34 33 38 37 33 31 35 33 30 28 29 30 30 29 30 30 30 33 36 38